Wind_Speed
33 32 32 32 30 29 28 26 25 24 24 25 25 24 23 23 22 22 22 22 22 22 21 21 20 21 21 21 21 21 22 23 24 24 25 25 25 24 24 25 27 28 29 30 31 30 30 30 31 33 34 36 37 38 39 40 40 41 41 42 43 44 44 45 45 44 44 44 44 42 39 35 33 31 28 23 19 17 15 13 13 16 19 22 25
33 32 32 32 31 29 28 27 26 26 26 27 26 25 25 24 24 24 24 24 24 23 22 21 21 21 21 22 22 23 24 25 25 26 26 27 27 27 26 26 27 29 31 32 33 33 33 33 33 34 36 38 39 40 41 42 43 43 44 45 46 46 47 47 47 46 45 44 43 42 39 36 32 29 28 26 21 18 16 14 12 15 19 22 24
31 30 30 30 29 28 27 27 27 27 28 27 27 26 26 26 26 26 26 26 26 25 23 22 22 22 23 23 24 24 25 26 27 28 28 29 30 30 29 29 29 30 32 33 34 34 35 35 35 36 38 40 41 42 43 44 46 46 46 47 48 48 49 49 50 49 47 46 44 41 38 36 33 29 26 24 21 18 16 14 13 14 17 21 24
30 30 29 28 27 27 28 28 29 29 29 28 27 27 27 28 28 28 29 29 28 27 25 24 24 23 24 25 25 26 26 27 28 30 30 30 31 32 32 31 31 32 33 34 35 36 37 38 38 39 40 42 44 45 46 47 48 48 49 49 50 51 51 51 51 51 49 47 45 41 37 34 32 29 25 22 20 18 18 16 14 14 16 19 23
33 33 32 31 30 30 30 30 30 30 30 29 28 28 29 29 30 30 31 30 30 28 27 26 26 25 26 26 27 27 28 30 31 31 32 32 32 32 33 34 34 35 35 35 36 37 39 40 41 42 43 44 46 47 49 50 50 51 51 51 52 52 52 52 52 51 49 47 44 40 37 33 31 29 25 21 19 17 18 19 17 16 17 19 22
37 37 36 35 34 34 33 32 32 31 30 30 30 30 30 31 31 31 31 31 31 30 29 28 28 28 28 28 29 29 30 32 33 33 33 33 33 33 35 36 37 37 37 37 38 40 41 42 43 45 46 47 48 50 51 53 53 54 54 54 54 54 53 53 52 51 49 47 43 39 35 32 30 28 25 21 19 17 19 21 20 19 19 20 23
40 40 39 38 37 36 35 34 32 31 31 31 31 31 31 31 31 31 30 31 31 30 30 30 30 30 29 29 31 32 32 33 34 33 33 33 34 35 36 37 38 39 39 40 41 42 44 45 46 47 48 50 51 52 54 56 57 57 56 56 56 55 53 52 51 49 47 44 42 38 34 31 29 28 26 23 21 19 19 21 22 21 22 23 24
42 41 40 39 38 37 36 34 33 33 32 32 32 32 32 32 32 31 31 31 31 31 31 31 31 31 32 32 33 34 34 34 33 33 33 34 36 37 37 38 39 40 42 43 44 45 46 47 49 50 51 53 54 55 57 58 59 59 59 57 56 54 52 50 48 46 44 42 39 37 33 30 28 27 26 24 23 21 21 22 24 24 24 25 26
42 41 40 39 39 38 36 35 35 34 33 33 34 34 33 32 33 32 32 31 31 32 32 32 32 33 33 34 34 35 35 35 35 35 35 36 38 39 40 40 41 43 44 45 47 48 49 50 51 53 54 56 57 58 59 60 61 61 60 58 55 52 49 47 44 42 40 39 37 35 32 29 27 27 26 25 24 23 22 23 24 25 26 27 28
43 42 41 40 39 39 38 37 36 36 35 35 36 35 34 33 33 33 33 32 32 33 34 34 35 35 35 36 36 37 37 37 37 38 38 39 40 41 42 43 44 46 47 48 49 50 52 53 55 56 58 59 60 61 61 61 60 60 59 55 52 48 45 43 41 38 37 37 36 34 31 28 26 26 26 26 25 25 24 24 25 26 27 28 29
43 43 42 41 40 40 40 39 38 37 37 37 37 36 35 34 34 35 35 34 34 35 35 36 36 36 37 37 38 39 40 40 40 41 41 41 42 43 45 46 47 49 50 51 52 53 55 56 58 59 61 62 62 62 62 60 58 56 54 51 47 44 42 40 38 36 36 35 34 32 29 27 25 25 26 26 26 26 26 26 26 26 27 28 29
44 44 43 42 42 42 41 40 40 39 39 38 38 36 35 35 36 36 36 35 35 36 37 37 38 38 39 40 40 41 42 43 43 43 43 44 45 46 48 50 51 52 53 55 56 57 58 59 60 61 62 63 62 61 59 56 52 50 48 46 44 41 40 39 37 35 34 33 32 30 28 27 25 24 25 27 27 27 27 27 27 27 26 27 29
45 45 45 44 43 43 42 42 41 40 39 39 38 37 36 36 37 37 36 36 36 37 38 38 39 40 41 42 43 44 45 46 46 46 47 47 48 49 52 53 55 56 57 58 60 60 61 61 61 61 59 59 58 57 54 51 47 44 43 43 42 40 38 37 36 33 32 32 32 30 28 27 26 24 25 26 27 28 28 27 27 27 27 27 28
46 46 46 45 44 43 43 42 41 40 39 39 39 38 38 38 38 38 38 38 39 39 40 41 41 42 43 44 45 47 48 49 49 50 50 51 51 53 55 57 58 59 60 61 61 61 60 59 57 56 53 52 51 51 49 46 43 41 40 41 41 39 37 36 35 33 31 31 31 31 28 26 25 25 25 26 26 27 28 29 29 28 28 29 29
45 45 45 44 44 43 43 42 41 40 40 40 40 40 39 39 39 40 40 40 41 42 43 44 44 45 46 47 49 50 51 52 53 53 54 55 55 56 57 58 59 60 59 59 58 56 55 53 51 50 48 47 47 47 46 44 41 39 39 39 39 37 36 35 33 32 31 30 30 31 29 26 25 25 26 27 27 28 28 30 31 30 30 31 30
45 45 45 44 44 43 43 43 42 42 42 42 42 41 41 41 41 42 43 44 44 45 46 47 47 49 50 51 52 53 54 55 57 57 58 58 57 57 57 56 55 54 53 52 51 49 48 48 47 47 46 44 44 45 45 43 41 40 40 39 38 37 36 35 33 31 30 30 30 30 30 28 26 27 27 28 29 29 29 31 32 32 32 33 32
47 46 46 45 45 45 45 44 44 44 44 44 44 44 44 44 45 45 46 47 48 49 50 51 52 53 54 55 56 57 57 58 58 58 57 56 54 52 51 49 48 47 47 46 45 45 45 46 45 45 44 44 44 44 44 43 41 41 41 39 37 37 37 35 33 31 30 29 29 29 30 29 28 28 30 30 30 30 31 31 32 32 33 33 33
48 47 47 46 46 46 46 46 46 47 47 47 47 47 47 48 48 49 50 51 52 52 53 54 55 56 56 56 56 56 55 54 53 52 51 49 48 46 44 43 43 43 43 42 42 43 44 45 45 45 44 44 44 44 44 43 42 42 43 41 38 36 36 33 31 30 29 28 28 29 30 31 31 30 31 32 32 33 34 32 31 32 32 32 32
50 49 49 48 48 49 49 49 49 49 50 50 50 50 51 51 52 53 53 54 54 54 54 54 54 54 53 52 51 50 49 48 47 46 45 44 43 43 42 42 42 42 41 40 41 41 43 44 45 44 44 44 44 44 44 43 42 42 42 41 38 35 33 29 27 27 28 29 29 29 30 32 33 33 33 34 34 34 36 35 33 33 33 33 33
52 52 51 51 51 51 52 52 52 52 53 53 53 53 53 53 54 53 53 52 51 50 50 49 48 47 46 46 45 44 44 43 43 43 42 41 40 41 41 42 42 42 40 40 40 41 42 44 44 44 44 44 44 44 44 44 43 42 41 40 38 34 29 26 26 26 29 32 33 32 32 33 34 33 33 35 35 36 38 38 37 37 37 37 37
55 54 54 54 53 53 53 53 53 53 53 53 53 52 51 50 49 48 47 46 44 44 43 42 42 42 42 41 41 41 41 41 41 41 40 39 40 41 41 42 42 41 40 40 41 42 43 43 43 44 43 43 43 43 43 44 44 43 42 40 37 33 28 26 27 29 33 37 37 35 34 35 34 33 32 33 35 36 38 40 42 42 42 41 40
56 55 54 53 53 52 51 51 50 49 49 48 47 46 44 43 42 41 41 40 39 39 39 39 39 39 40 40 40 40 39 39 39 40 40 41 42 42 42 42 42 41 40 41 41 42 43 44 44 43 42 41 42 43 43 44 44 45 44 42 38 34 30 29 32 36 38 39 38 37 38 37 36 35 34 33 35 38 40 42 45 46 44 41 41
50 49 48 47 46 46 45 44 43 42 42 41 41 40 39 38 38 37 37 36 36 37 37 37 37 37 38 38 38 38 38 39 40 42 43 44 44 44 44 44 44 44 43 43 44 44 45 45 45 45 43 41 41 42 43 44 44 44 45 44 41 37 32 30 33 34 34 35 36 37 38 37 38 39 37 36 40 43 44 45 46 45 42 40 43
40 39 39 39 39 39 39 38 38 37 37 37 37 37 36 36 35 35 35 35 35 35 36 36 36 36 37 37 38 39 41 42 43 44 45 46 46 47 48 48 48 48 47 48 49 49 48 47 46 45 44 41 41 41 41 43 44 44 44 44 42 38 32 28 29 30 32 37 40 40 39 39 42 45 45 45 45 46 46 47 47 47 46 45 47
35 35 35 35 35 36 36 36 36 36 36 36 36 36 35 35 35 35 35 35 35 36 36 37 37 37 38 39 40 42 43 44 45 45 46 47 49 50 50 51 51 51 51 52 53 54 52 50 48 46 45 43 42 42 41 42 43 44 45 44 41 38 33 29 28 28 29 31 34 36 37 40 43 45 48 50 49 49 51 52 50 49 49 50 51
35 35 35 35 36 36 36 36 36 36 36 36 36 36 35 36 36 37 37 37 38 38 38 38 39 39 40 41 43 44 45 46 46 46 47 49 50 52 52 53 54 54 54 54 56 56 56 54 53 51 49 46 44 43 43 44 44 45 45 43 40 37 32 26 24 23 23 26 32 39 45 48 49 49 50 50 50 51 54 54 52 49 46 47 50
37 37 37 37 37 38 38 38 38 38 38 38 37 37 38 39 39 40 40 41 41 41 41 42 42 43 43 44 45 46 47 48 48 48 49 50 52 53 54 55 55 56 56 57 57 58 59 59 59 58 55 50 46 45 45 46 46 46 45 44 43 38 29 22 21 23 28 35 45 53 58 60 60 58 55 51 50 51 53 53 53 50 45 44 48
39 39 39 39 40 41 41 41 42 42 41 40 40 42 43 43 43 43 43 44 44 44 44 45 45 46 47 47 48 49 50 51 50 51 51 52 53 54 55 56 57 57 58 58 58 59 61 62 63 63 61 57 52 49 49 49 48 46 44 44 45 42 34 27 27 32 41 50 58 63 65 65 63 60 55 51 50 51 52 53 51 48 45 45 48
41 41 41 41 42 43 44 45 45 44 43 43 44 46 46 46 45 46 47 47 47 47 47 48 48 49 49 50 51 52 53 54 54 53 54 54 55 56 57 58 59 59 60 61 60 60 62 62 63 63 63 60 57 54 53 53 51 47 46 46 46 43 38 33 34 41 53 63 67 68 67 64 63 60 56 53 53 52 52 51 48 45 46 47 49
43 43 43 43 44 45 46 47 47 46 45 46 48 48 48 48 48 49 49 50 50 50 50 50 50 51 51 51 53 54 55 56 56 56 56 57 57 58 59 60 61 62 63 63 63 62 62 62 62 62 62 61 58 56 55 55 53 51 50 49 46 41 36 35 40 49 59 64 64 65 65 62 62 62 58 54 52 51 51 50 46 45 48 51 51
47 47 47 47 48 48 48 49 49 47 48 50 51 51 50 51 51 51 52 52 52 52 52 52 52 52 53 54 55 56 57 59 59 59 59 58 58 58 59 61 62 64 65 65 64 62 61 60 60 60 61 60 58 56 55 54 54 54 54 51 47 41 38 39 45 52 58 58 57 60 64 64 63 64 60 54 50 48 48 47 45 45 51 54 54
49 50 51 51 52 52 52 52 52 51 52 53 54 54 53 54 54 54 55 55 55 55 55 55 55 56 56 57 58 59 60 61 61 62 61 60 60 60 60 62 64 65 66 65 62 60 59 58 57 57 58 58 57 56 54 54 56 57 55 52 49 45 41 41 43 45 47 46 45 50 57 60 61 63 62 56 52 50 47 44 45 49 55 59 58
52 52 53 53 54 54 55 55 55 55 56 56 57 57 57 57 57 57 58 58 58 58 58 58 59 59 60 61 61 62 62 63 64 64 64 63 62 62 63 64 64 64 63 61 58 57 58 58 58 58 58 57 56 54 54 54 56 57 56 52 47 43 40 40 40 39 38 39 42 50 56 58 59 61 60 57 54 50 47 46 48 52 56 58 58
56 56 56 56 56 56 57 58 58 58 59 59 59 60 60 60 60 60 60 60 61 61 62 62 63 63 63 64 65 65 65 66 66 66 66 65 64 63 63 63 62 61 58 55 53 53 56 58 59 59 59 58 57 54 53 55 57 57 55 50 43 40 40 39 38 37 36 37 43 52 57 58 58 58 59 61 59 53 48 50 53 55 57 58 58
60 60 60 59 59 60 60 61 61 61 61 61 62 62 62 63 63 63 63 63 64 65 65 66 66 66 67 67 67 67 68 68 68 68 67 66 65 65 63 61 60 59 57 56 54 55 57 58 58 59 60 61 60 57 55 56 57 55 52 47 41 39 40 40 38 38 38 39 42 46 51 57 60 60 61 65 63 54 50 53 56 58 59 59 59
63 63 63 63 63 63 64 64 64 64 64 64 65 65 65 66 66 66 66 67 68 68 68 69 69 70 70 70 69 69 70 70 70 70 69 68 67 65 62 58 58 59 59 58 58 58 58 57 57 58 61 62 63 61 59 58 56 54 49 45 40 37 39 41 39 36 34 35 39 45 52 59 62 61 61 64 63 56 53 56 59 59 59 59 59
67 67 67 67 66 66 67 67 67 67 67 68 68 68 69 69 69 69 69 70 71 71 71 72 72 73 73 72 72 72 72 72 72 71 70 69 67 65 61 58 57 58 59 59 58 58 57 57 59 60 62 64 64 63 62 60 57 54 50 46 41 37 38 40 39 34 30 30 37 46 53 56 56 56 57 60 61 58 55 55 56 57 58 59 59
70 70 70 70 70 70 70 70 70 71 71 71 71 72 72 72 72 72 72 73 74 75 75 75 75 75 75 75 74 74 74 74 74 74 73 71 68 64 61 58 58 59 60 60 61 61 60 61 62 63 64 65 65 63 62 60 57 54 53 50 45 40 38 38 38 35 32 33 41 48 51 51 51 51 52 54 56 57 56 55 55 57 58 58 58
74 74 74 74 74 74 74 73 74 74 74 74 74 74 74 74 75 75 76 77 78 78 78 78 78 78 78 77 76 76 76 76 77 76 74 72 68 64 62 60 61 62 62 62 63 64 64 65 65 63 63 64 64 62 61 58 55 52 51 49 46 43 40 37 36 35 34 37 41 44 46 47 47 44 43 47 52 55 56 57 57 58 58 58 58
78 78 78 77 77 77 77 76 76 76 76 76 77 77 77 78 78 79 79 80 81 82 82 82 81 81 80 80 79 79 78 77 77 76 75 72 68 65 64 64 65 66 65 65 65 66 67 67 65 61 60 62 63 60 58 57 54 51 47 44 42 41 40 36 31 31 33 36 38 40 40 39 36 33 37 47 54 54 53 55 56 58 58 58 59
82 81 81 80 79 79 78 78 78 78 78 78 79 80 80 81 82 83 84 85 85 85 85 84 83 83 83 82 82 80 79 77 76 76 74 72 69 67 67 68 69 69 68 68 68 69 68 66 62 57 56 59 60 58 55 55 53 49 44 41 38 38 38 33 27 26 29 28 28 29 29 26 26 32 43 54 57 56 55 57 58 58 59 59 59
84 84 83 82 81 80 80 80 80 80 80 81 82 82 83 84 85 87 88 88 88 88 87 86 85 84 85 85 84 82 79 77 75 75 75 74 72 71 71 71 71 71 71 71 71 70 67 62 57 55 55 56 57 55 52 52 50 46 41 38 36 37 36 32 27 27 27 24 21 25 29 31 36 45 53 58 60 62 63 63 61 60 60 61 61
85 84 84 83 82 82 82 83 83 83 83 84 84 84 85 87 89 90 91 91 91 91 90 89 88 87 87 86 84 82 79 76 75 74 75 75 74 74 73 73 73 73 74 73 71 69 64 58 54 54 54 54 54 53 49 48 47 43 38 36 37 39 40 38 35 33 31 28 27 32 40 46 51 55 57 59 63 66 67 66 66 65 64 64 63
86 85 85 85 85 85 85 86 86 86 86 86 86 87 89 91 92 92 92 93 93 93 92 91 90 88 86 84 82 80 79 77 75 75 75 76 77 77 76 77 77 77 76 74 72 69 65 58 53 51 51 50 51 50 46 44 44 41 36 35 37 40 43 45 45 43 42 40 40 44 49 56 61 63 62 61 63 66 66 67 68 69 68 67 65
88 87 87 87 87 87 87 87 88 88 88 88 88 90 92 93 93 93 93 94 94 93 92 90 87 85 82 81 80 80 79 79 78 78 78 78 79 79 79 79 79 79 78 75 72 69 65 58 53 50 48 48 49 49 45 42 42 41 37 36 40 43 45 46 48 48 48 49 52 56 59 63 68 71 68 64 63 65 66 68 69 70 70 69 67
90 89 88 89 89 89 90 90 90 89 90 90 90 91 93 93 94 94 94 94 92 90 87 84 82 80 80 81 82 82 82 81 81 81 81 81 81 82 81 80 79 79 78 76 73 69 64 59 53 51 50 49 49 49 46 43 41 41 40 40 44 49 50 50 50 51 52 54 58 64 69 73 76 76 74 70 67 68 70 71 72 73 73 72 70
92 91 91 91 91 91 91 91 90 90 90 90 90 91 93 94 93 92 90 88 86 85 84 83 83 83 83 84 83 83 82 82 82 83 83 83 83 82 81 81 80 80 80 79 77 74 70 64 58 54 52 51 50 49 49 48 45 43 41 42 47 53 56 55 55 57 59 61 64 68 74 78 78 76 73 72 71 72 74 76 77 77 77 75 74
95 94 93 93 92 92 92 92 91 91 91 91 91 91 91 90 88 86 84 84 85 86 88 88 88 87 85 84 83 83 82 83 84 84 84 83 82 81 81 81 81 82 82 82 82 80 78 74 69 64 61 59 57 55 55 55 53 50 46 44 47 54 59 61 61 63 66 68 71 73 76 79 80 77 74 73 74 76 78 78 79 79 78 77 75
91 91 91 90 90 89 88 88 88 88 88 89 89 89 89 87 86 85 86 87 88 89 89 89 88 88 86 84 83 82 81 81 82 82 81 80 79 80 82 83 83 84 84 83 84 84 83 81 80 77 74 71 67 64 63 63 62 59 55 51 49 52 59 64 67 69 71 73 75 77 79 81 82 81 80 79 79 80 81 81 81 81 79 77 75
85 85 85 86 86 85 84 84 83 83 84 86 89 90 90 90 91 91 92 91 90 89 87 86 86 86 86 85 84 83 83 83 82 82 81 80 81 83 86 88 88 87 86 84 84 84 84 85 86 86 84 80 76 73 71 71 69 66 63 60 56 54 57 63 68 72 74 76 78 79 80 82 84 85 86 85 85 85 85 86 86 84 82 80 77
90 89 88 87 87 87 87 88 88 87 86 88 91 93 95 96 97 97 97 95 93 92 91 91 91 91 90 89 88 87 86 86 86 86 86 87 89 91 93 93 92 90 89 88 87 88 88 89 90 91 90 88 84 81 79 77 75 72 69 67 63 60 58 60 65 70 75 78 80 81 82 84 85 87 88 88 87 87 86 85 83 82 80 77 76
Wind_Direction
214 216 219 223 226 227 229 230 232 235 238 242 245 247 250 252 255 258 261 264 267 269 271 275 279 282 286 290 294 296 298 299 300 302 303 305 307 307 307 309 311 314 315 316 317 318 320 321 322 321 321 321 322 324 325 326 328 329 329 330 331 332 332 332 332 333 334 335 335 334 335 334 329 324 320 313 299 292 305 328 348 353 357 4 7
219 220 222 225 227 229 230 231 233 235 238 241 244 247 249 252 254 256 258 261 263 265 268 272 275 279 282 286 290 292 295 297 298 300 302 303 304 305 305 306 308 310 312 313 314 315 316 317 318 318 318 318 320 321 322 323 324 325 326 327 328 328 329 329 329 330 331 331 331 332 332 330 327 322 319 315 304 288 291 311 333 345 349 355 1
225 226 228 230 232 234 236 237 239 240 242 244 246 249 251 252 254 256 258 260 262 264 267 269 272 275 279 283 287 290 293 295 296 297 299 301 303 303 304 305 307 309 310 311 311 312 313 314 315 316 316 316 317 318 319 320 321 322 323 324 325 326 326 326 326 327 328 328 328 329 329 327 324 321 318 314 304 284 278 294 315 332 342 347 352
227 228 231 234 236 238 240 241 243 244 246 247 249 251 253 254 256 258 260 262 265 266 267 268 270 274 278 282 285 289 291 293 294 296 298 301 302 303 303 305 306 308 308 309 309 309 310 311 312 313 314 314 314 315 316 317 318 319 320 321 322 323 323 323 323 324 324 325 326 326 326 324 321 319 317 314 305 284 271 281 298 316 330 338 344
227 229 231 233 235 237 239 241 243 245 247 248 250 252 254 256 258 261 264 267 269 269 270 271 272 275 278 281 285 288 291 293 294 296 298 301 302 303 304 305 306 307 307 307 306 307 308 309 310 311 311 312 312 313 314 315 315 316 318 319 319 320 320 320 320 321 321 322 323 324 324 322 319 316 315 313 307 287 271 274 287 302 316 326 333
228 229 230 232 234 235 237 239 242 244 247 249 250 252 255 257 260 262 265 268 269 271 272 273 275 277 280 283 286 289 291 293 295 297 299 301 302 302 303 304 305 305 305 304 304 305 305 307 308 309 309 309 310 311 311 312 313 314 315 316 317 317 318 317 317 318 319 319 320 321 321 320 316 313 312 310 306 294 274 270 279 292 304 314 324
229 230 231 232 234 235 237 239 242 244 247 250 252 254 256 259 261 264 266 267 269 271 272 274 276 279 282 285 287 289 291 294 296 297 299 300 300 301 301 302 302 302 302 302 302 303 304 305 306 306 307 307 308 308 309 310 311 311 313 314 315 315 315 315 314 315 317 317 318 318 318 317 313 310 309 306 304 298 283 273 275 285 294 303 314
230 231 232 233 235 236 237 240 242 245 248 251 253 255 257 260 262 264 265 267 269 271 272 274 277 280 283 285 287 289 291 293 294 295 296 297 297 298 298 298 298 299 300 300 301 302 302 303 304 304 304 305 306 306 307 308 309 309 311 312 312 313 313 313 312 314 315 315 314 314 315 313 309 306 305 303 301 299 292 281 277 281 288 296 306
231 233 233 234 236 238 239 241 243 246 249 252 254 256 257 259 261 263 265 266 269 271 273 275 277 280 282 284 285 287 288 290 290 291 293 293 294 295 295 296 297 297 298 299 299 300 301 301 301 301 302 303 304 305 305 306 307 308 309 310 311 311 312 311 311 312 312 311 311 311 311 310 306 302 300 300 299 299 296 289 282 280 285 292 301
231 233 234 235 238 239 241 243 245 247 250 252 254 256 257 258 261 263 265 266 268 271 273 275 277 279 281 283 284 285 286 288 289 290 291 292 293 294 294 295 295 296 296 297 297 298 298 299 300 300 301 301 302 303 303 304 305 307 308 309 310 311 310 310 310 311 309 308 308 308 308 307 303 300 298 297 297 299 299 295 289 283 284 291 299
231 234 235 236 239 241 243 244 246 249 252 254 256 257 259 260 262 264 266 268 270 273 275 277 279 281 283 283 284 286 287 288 289 289 290 291 292 293 293 293 293 293 294 295 296 296 297 298 298 299 299 300 301 301 302 303 305 306 307 309 311 311 310 309 310 308 305 304 304 304 304 304 302 299 297 297 296 297 299 299 295 288 285 289 298
232 235 237 238 239 242 245 247 249 252 255 257 258 260 261 263 264 266 268 270 272 274 275 278 280 281 282 283 284 285 285 286 286 287 288 290 291 291 291 292 292 292 293 294 294 295 295 296 297 297 298 299 300 300 301 303 305 307 308 310 311 311 310 308 307 304 302 301 299 300 302 302 301 299 298 297 296 297 297 299 297 291 286 289 297
236 237 239 240 242 244 246 249 251 254 256 257 259 260 261 262 264 265 267 269 271 272 274 276 277 279 280 282 283 283 284 285 286 287 289 290 290 290 290 290 291 292 293 293 293 294 294 295 296 296 298 298 299 300 301 304 307 309 309 309 309 310 309 306 303 300 299 297 296 297 300 301 300 298 296 296 296 296 296 296 295 290 286 287 295
238 240 241 243 244 246 247 249 251 253 254 256 258 259 260 262 264 266 268 270 272 273 274 275 276 278 279 281 282 283 284 286 287 287 288 288 288 288 288 289 290 291 292 292 292 293 294 295 296 296 297 299 300 301 303 306 308 308 307 306 307 308 307 303 298 296 296 296 296 296 297 299 300 297 295 295 295 295 294 293 292 289 284 283 290
239 241 243 245 246 247 249 250 251 253 255 257 259 261 263 265 267 269 271 272 273 273 274 275 277 278 279 280 282 283 284 285 285 285 286 286 287 287 288 288 289 290 290 291 292 293 295 296 296 296 298 299 300 302 304 306 306 305 304 304 305 306 306 299 292 291 294 295 296 295 294 296 299 298 295 295 295 296 294 291 290 289 284 281 288
242 243 245 247 249 250 252 254 255 257 258 260 261 263 264 266 267 269 271 272 273 274 275 276 278 279 279 280 281 281 282 282 283 284 285 285 286 287 287 288 288 289 290 292 294 295 295 296 296 297 299 300 301 302 303 304 304 303 303 304 305 307 305 295 290 293 297 297 298 295 292 293 299 300 299 297 296 297 296 292 290 290 287 285 290
244 246 248 249 251 253 255 257 258 259 260 262 263 264 265 267 268 270 271 273 274 275 276 277 277 278 279 279 280 280 281 282 283 284 284 284 285 285 287 288 288 289 290 293 295 296 296 296 296 297 299 300 301 301 302 303 304 303 303 305 308 309 304 295 294 298 302 304 305 299 293 291 295 302 304 302 299 298 297 295 292 291 290 289 294
247 248 250 251 253 255 256 257 259 261 262 263 264 266 268 269 270 272 272 273 274 275 276 276 277 277 278 279 279 280 281 282 282 283 284 284 285 285 286 286 287 288 290 292 294 295 295 296 297 298 300 301 301 302 302 303 304 304 305 307 309 308 302 298 300 304 306 310 310 304 298 293 293 301 307 305 301 299 299 298 295 293 292 292 296
248 250 252 253 255 256 258 259 260 262 264 265 267 268 269 270 271 272 273 274 274 275 275 276 276 277 277 278 278 279 280 281 282 283 284 285 286 287 288 288 287 288 290 292 292 293 294 295 297 300 301 302 303 303 303 303 304 303 305 307 306 303 299 299 304 309 311 312 311 308 304 298 294 298 304 305 302 298 299 299 296 294 294 295 299
249 251 253 255 256 257 259 260 262 263 265 266 267 268 269 270 271 272 272 273 273 274 274 275 276 277 277 278 279 281 282 283 284 285 286 287 288 290 291 292 292 293 294 294 293 293 293 295 298 300 302 303 304 304 303 303 303 302 303 303 301 299 298 298 301 305 308 308 308 309 308 303 297 296 300 305 303 297 297 299 297 296 297 297 298
250 252 253 255 256 258 259 260 262 263 264 265 266 267 268 269 269 270 270 271 272 273 274 275 277 278 279 280 282 282 283 284 285 285 286 288 291 293 293 293 294 295 296 295 294 293 294 296 298 300 302 304 304 304 303 302 302 302 301 298 295 295 295 292 291 295 298 299 301 305 305 303 300 297 298 302 303 300 299 300 298 298 299 297 294
250 252 253 255 256 257 258 259 260 261 262 263 264 265 266 267 267 268 270 271 272 273 274 276 277 279 280 281 282 283 284 285 286 287 288 291 294 297 296 296 297 298 298 298 297 297 297 298 299 299 301 303 304 303 303 302 302 302 301 297 293 291 290 287 286 290 293 295 298 301 301 302 301 299 295 295 299 303 305 304 302 301 300 295 290
249 250 251 252 254 255 255 256 257 258 260 262 263 264 265 266 267 268 270 271 272 273 274 276 277 279 280 282 283 285 286 288 290 291 293 296 299 300 300 300 301 302 304 303 302 301 301 301 301 301 302 303 302 302 302 301 300 299 299 297 293 291 290 286 283 287 294 299 302 304 303 302 302 302 299 295 297 303 305 304 305 304 300 291 287
246 247 247 249 251 253 254 255 257 258 260 261 262 263 264 265 267 268 269 271 272 274 275 277 279 281 282 284 286 287 289 291 292 294 297 299 300 300 300 301 302 304 305 305 304 303 303 303 302 301 301 301 300 299 299 300 298 297 296 295 292 291 291 285 282 290 299 300 301 303 302 301 302 304 303 300 298 300 301 302 304 303 298 290 288
245 246 246 247 249 251 253 255 256 258 259 260 261 263 264 266 268 270 271 273 274 276 278 280 282 283 284 285 287 288 289 290 292 294 296 297 297 297 298 299 300 302 303 303 302 303 305 305 304 302 301 301 299 298 298 299 299 297 295 294 291 290 289 284 286 299 307 304 303 305 307 306 306 306 306 304 301 298 296 296 298 299 295 291 291
244 244 245 247 248 250 252 255 257 259 260 261 263 264 266 269 270 272 274 276 277 279 280 282 284 285 285 285 286 287 288 289 291 293 294 293 293 295 296 297 297 298 300 300 301 303 305 305 304 302 301 301 301 300 300 300 300 298 295 292 288 286 286 284 288 302 312 312 311 312 312 311 310 308 308 308 307 303 297 293 293 295 293 290 291
243 244 245 248 250 253 255 257 260 261 263 264 266 268 269 269 271 273 275 277 278 280 281 283 284 284 285 285 286 286 287 288 290 292 292 292 293 294 295 295 296 297 299 300 301 302 303 303 302 301 301 302 303 302 300 298 297 295 293 291 287 285 283 280 281 291 301 305 307 308 308 307 307 307 308 308 308 306 299 293 293 294 290 287 290
245 246 248 250 253 256 257 259 261 263 265 267 269 269 269 270 272 274 275 276 277 279 281 282 282 283 284 285 286 287 287 289 290 291 292 293 293 293 294 295 296 297 298 299 301 302 302 301 300 300 300 301 302 301 298 296 293 290 287 287 285 284 283 283 288 298 305 306 305 303 302 302 303 306 308 306 304 303 297 292 293 291 284 284 293
247 248 250 252 255 257 259 261 263 265 267 269 269 269 270 272 274 275 276 277 278 279 280 281 282 283 285 286 287 288 289 289 290 291 291 292 293 293 295 296 297 298 298 299 301 302 301 300 298 297 297 298 298 298 296 294 292 287 283 283 283 281 280 284 292 300 302 301 297 294 294 294 294 297 304 305 301 298 294 290 289 286 281 282 291
251 252 254 255 257 259 260 262 264 266 268 269 269 270 272 273 274 275 276 277 278 279 281 282 284 285 286 287 288 289 289 290 291 291 292 293 294 295 296 297 298 298 298 299 300 301 301 300 299 297 295 295 295 296 295 293 291 287 283 284 283 278 276 281 287 290 291 289 285 282 285 288 287 289 296 301 299 294 291 288 285 284 284 285 290
254 256 257 258 259 260 261 263 264 266 267 268 269 270 271 272 273 275 276 277 278 279 281 282 284 285 287 287 288 289 290 291 292 293 294 295 296 297 298 298 298 298 298 298 299 299 299 301 301 299 296 294 294 295 293 292 290 286 284 284 282 280 281 284 282 279 278 278 274 272 275 279 281 282 287 292 293 290 288 285 282 282 284 286 290
255 257 259 260 261 262 262 263 264 265 266 267 268 270 271 272 273 274 275 277 278 279 280 282 283 284 286 287 288 289 290 291 293 294 295 297 298 298 299 298 299 299 299 298 297 296 297 300 301 300 296 294 293 293 292 290 288 285 284 281 279 281 286 286 281 275 273 274 274 272 274 277 280 282 283 285 287 287 283 277 273 273 277 283 287
255 257 259 261 262 263 264 265 265 266 266 267 269 270 271 272 273 274 276 277 278 279 280 282 283 284 286 287 288 290 291 292 294 295 296 297 299 299 300 300 300 301 301 300 298 297 297 298 299 298 295 293 291 290 289 288 285 283 282 279 278 283 284 281 279 276 271 271 273 272 274 278 283 285 281 277 280 284 279 270 267 269 274 280 285
257 259 260 262 264 265 266 266 267 267 268 268 269 271 272 273 274 275 276 277 278 279 281 282 284 285 286 288 289 291 292 293 294 295 296 298 299 300 300 300 300 301 302 301 300 300 299 298 297 296 295 294 291 288 287 287 284 283 281 278 279 285 286 283 282 279 272 270 269 267 268 273 279 284 282 275 275 278 274 266 267 271 274 279 286
259 260 262 264 265 266 267 267 268 269 269 270 271 272 273 274 275 276 277 278 279 281 282 283 285 286 287 288 290 292 293 293 294 295 297 298 299 300 300 299 299 300 301 301 302 303 302 301 299 296 295 296 294 291 289 288 285 282 281 278 279 284 286 286 285 280 274 271 268 267 271 274 276 280 280 275 273 274 270 265 268 270 273 281 290
260 261 263 264 266 267 268 269 270 270 271 271 272 273 274 275 277 278 279 280 281 282 283 284 285 287 288 289 291 292 293 293 294 295 296 297 299 299 298 297 297 299 300 300 301 303 303 301 299 298 297 297 296 294 292 289 286 284 281 277 276 280 284 285 281 277 277 276 271 272 276 276 274 275 276 271 268 268 268 268 268 269 274 284 293
260 262 264 265 267 268 269 270 270 271 272 272 273 274 275 276 278 279 280 281 282 283 284 285 286 287 288 290 291 292 292 293 294 294 295 296 297 298 297 294 294 297 299 300 301 303 303 302 300 299 299 298 297 295 292 289 287 285 281 276 273 275 279 279 274 273 279 279 270 267 269 270 271 273 271 265 264 267 269 269 269 270 277 287 293
262 263 264 266 267 268 269 269 270 271 272 273 274 275 276 278 279 280 281 282 283 284 284 285 286 287 288 290 291 292 292 293 293 293 294 295 296 297 295 292 292 295 298 299 301 302 302 302 302 300 298 297 297 295 291 288 286 283 281 279 277 276 274 271 267 268 273 271 262 260 264 267 269 268 264 261 264 267 267 268 269 273 279 287 292
263 264 265 266 267 268 269 270 271 272 273 274 275 276 278 279 280 280 281 282 283 283 284 284 286 287 288 290 290 290 291 292 292 293 294 295 296 296 294 291 291 294 297 299 302 302 302 303 302 300 296 295 295 294 291 287 283 279 278 278 279 276 272 269 269 270 270 268 264 263 265 267 266 263 260 263 265 264 264 266 270 274 279 285 290
262 263 264 266 267 268 269 270 271 272 273 274 275 276 277 278 279 280 281 281 281 282 283 285 286 287 288 289 289 289 290 291 292 292 293 294 295 294 293 291 292 294 297 300 302 303 303 303 303 299 295 295 295 294 292 288 283 277 274 274 274 270 267 269 274 274 272 270 269 267 266 267 266 264 262 263 261 260 263 268 274 279 283 285 288
261 262 263 264 266 267 268 269 270 272 273 274 275 276 277 278 279 279 280 280 281 282 283 285 286 287 287 288 288 289 290 291 291 291 292 293 293 292 292 292 293 295 297 300 303 304 304 304 302 299 297 296 295 294 293 290 284 277 273 271 267 260 259 262 266 267 268 269 269 267 263 258 254 253 255 256 257 260 264 270 276 281 284 285 287
260 261 263 264 265 267 268 269 270 271 272 273 274 275 277 278 278 278 279 280 281 282 283 284 285 286 286 287 288 289 290 290 290 290 291 292 293 292 292 293 294 296 299 301 304 305 305 304 303 301 300 297 294 293 293 290 284 276 271 268 260 252 250 250 245 244 250 253 253 253 250 243 238 240 245 251 257 262 266 270 276 281 284 284 285
261 262 263 264 265 266 267 268 269 270 271 273 274 275 276 276 277 278 279 280 281 282 283 284 285 285 286 287 288 289 289 289 289 289 290 292 292 293 293 294 295 297 299 302 304 306 307 305 304 304 303 300 296 293 291 288 282 274 266 262 256 249 246 244 239 236 239 240 238 240 245 247 246 244 245 250 256 261 264 268 273 278 283 284 284
260 261 262 263 264 265 267 268 269 270 271 272 273 274 274 275 276 278 279 280 281 282 283 284 284 285 286 287 287 288 288 288 288 288 289 290 291 291 292 293 294 296 299 301 303 306 307 306 305 306 306 305 300 296 291 285 279 271 261 254 250 246 245 246 244 242 241 240 236 235 239 244 245 245 248 255 259 262 265 268 271 275 281 284 283
259 261 262 263 264 265 266 267 268 269 270 271 272 273 274 275 276 278 279 280 280 281 282 283 283 284 285 286 286 286 286 286 286 287 288 289 289 290 291 292 293 295 298 300 302 304 306 306 306 307 308 308 306 303 297 288 278 269 259 249 243 241 242 244 244 244 243 243 240 236 236 239 240 243 250 260 265 266 268 271 273 277 281 283 283
259 260 262 263 263 264 265 266 267 268 269 270 271 272 274 275 276 277 277 278 279 280 281 281 283 284 285 285 285 285 285 286 286 287 288 289 290 290 291 292 294 296 299 301 303 305 307 307 307 307 308 307 306 305 303 297 285 272 259 246 238 238 240 241 239 237 238 239 239 236 234 234 237 242 252 261 267 269 270 272 275 278 281 282 282
260 260 261 262 263 264 265 266 267 268 269 270 272 273 274 275 275 276 276 276 277 279 280 281 283 284 285 285 285 285 285 286 287 288 289 290 290 291 292 294 296 298 300 302 303 306 308 308 308 307 306 305 303 302 303 303 297 284 269 253 240 236 237 238 235 231 230 233 235 234 232 232 236 244 254 263 267 269 271 272 275 277 279 281 281
260 261 261 262 263 265 266 266 267 268 269 270 271 272 273 273 273 274 274 275 277 280 282 283 284 284 284 284 284 285 286 287 288 289 290 290 291 292 294 296 297 299 300 301 302 304 306 308 309 308 307 306 304 303 303 303 302 297 286 270 252 240 238 238 236 233 232 233 234 236 236 237 241 248 257 263 267 269 270 271 273 276 278 279 279
260 261 261 263 264 265 266 267 267 268 269 269 270 270 270 271 272 274 276 278 281 283 284 285 285 285 285 285 285 285 286 287 288 289 289 289 290 291 293 294 296 297 299 299 300 302 304 306 307 308 308 307 306 305 304 303 302 300 297 288 271 254 245 241 240 239 239 239 239 239 241 243 246 251 257 263 267 268 269 270 272 274 276 276 277
259 260 261 262 263 264 265 266 267 268 269 269 269 270 270 271 273 275 278 280 281 282 282 282 282 282 282 283 283 284 285 286 287 287 286 286 287 288 290 292 294 295 296 297 298 300 301 302 304 305 306 306 305 304 304 303 302 301 300 297 289 275 260 251 246 245 246 246 246 246 246 248 251 254 259 264 267 268 269 270 271 273 273 274 274
259 260 261 261 262 264 265 266 267 268 269 269 269 270 272 273 275 276 278 279 280 280 279 279 279 278 278 279 280 281 282 283 283 283 283 283 285 287 289 291 292 293 294 295 296 297 298 299 301 302 303 303 303 302 302 302 302 302 302 300 297 290 280 268 258 253 251 251 252 252 253 254 256 259 262 265 267 268 268 269 269 271 271 272 272
Height
10980 10982 10983 10985 10986 10988 10989 10991 10992 10993 10993 10994 10994 10996 10997 10998 10998 10999 10999 11000 11000 11001 11001 11002 11002 11003 11002 11003 11003 11002 11002 11001 11001 11000 11000 10999 10998 10998 10997 10996 10995 10993 10991 10990 10989 10988 10987 10986 10985 10983 10981 10979 10978 10976 10975 10973 10972 10971 10970 10968 10966 10964 10961 10959 10957 10955 10953 10951 10948 10946 10944 10942 10940 10937 10935 10935 10935 10934 10932 10930 10928 10926 10924 10923 10921
10978 10980 10981 10982 10984 10985 10987 10988 10989 10990 10990 10991 10992 10993 10994 10995 10996 10996 10996 10997 10997 10998 10999 11000 11000 11000 11000 11000 11000 11000 11000 10999 10998 10998 10997 10997 10996 10995 10995 10994 10993 10991 10990 10988 10986 10985 10984 10983 10982 10980 10978 10976 10974 10973 10972 10970 10969 10967 10966 10964 10962 10961 10958 10956 10953 10951 10950 10948 10945 10943 10940 10938 10936 10935 10933 10931 10931 10930 10929 10927 10925 10924 10922 10920 10919
10977 10979 10980 10981 10983 10984 10985 10986 10986 10987 10988 10989 10990 10991 10992 10993 10993 10993 10993 10994 10994 10995 10997 10997 10997 10998 10998 10998 10998 10998 10998 10997 10996 10995 10995 10994 10993 10992 10992 10991 10991 10989 10987 10986 10984 10982 10981 10979 10979 10977 10975 10973 10971 10970 10968 10967 10965 10963 10962 10960 10958 10957 10955 10952 10949 10947 10945 10943 10941 10939 10937 10934 10932 10931 10930 10928 10927 10926 10926 10924 10923 10922 10920 10918 10916
10975 10976 10977 10979 10981 10981 10982 10983 10984 10985 10985 10987 10988 10989 10990 10990 10990 10990 10990 10991 10992 10993 10994 10994 10995 10995 10995 10995 10995 10995 10995 10994 10994 10993 10992 10992 10991 10989 10988 10988 10987 10986 10985 10983 10981 10979 10977 10976 10975 10974 10972 10970 10968 10966 10964 10963 10961 10959 10958 10956 10954 10952 10950 10948 10945 10942 10940 10938 10936 10935 10933 10931 10928 10927 10926 10925 10924 10923 10922 10921 10920 10919 10918 10916 10914
10971 10972 10974 10975 10977 10977 10978 10979 10980 10981 10983 10984 10986 10987 10987 10987 10988 10988 10988 10989 10990 10990 10991 10992 10992 10993 10993 10993 10993 10992 10992 10992 10991 10990 10990 10989 10989 10987 10985 10984 10984 10983 10981 10980 10978 10976 10974 10972 10971 10970 10968 10966 10964 10962 10960 10958 10957 10955 10954 10952 10950 10948 10946 10943 10940 10938 10936 10934 10932 10930 10928 10926 10924 10923 10922 10922 10921 10920 10919 10918 10917 10916 10915 10913 10911
10966 10968 10969 10971 10972 10973 10974 10975 10976 10978 10980 10981 10983 10984 10984 10984 10985 10986 10987 10987 10987 10988 10989 10989 10990 10990 10991 10990 10990 10990 10990 10989 10989 10988 10987 10987 10986 10985 10983 10981 10980 10979 10977 10976 10974 10972 10970 10969 10967 10966 10964 10962 10960 10958 10956 10954 10952 10951 10949 10948 10946 10944 10942 10939 10936 10933 10931 10929 10927 10926 10924 10922 10920 10918 10918 10918 10918 10917 10916 10915 10913 10912 10911 10911 10909
10961 10963 10965 10966 10967 10969 10970 10972 10974 10976 10977 10978 10979 10980 10981 10981 10982 10983 10984 10984 10985 10985 10986 10986 10986 10987 10987 10988 10987 10987 10987 10986 10986 10986 10985 10983 10982 10981 10980 10978 10976 10974 10973 10971 10969 10968 10966 10965 10963 10961 10959 10958 10956 10953 10951 10949 10947 10945 10944 10943 10941 10939 10937 10934 10931 10928 10927 10925 10923 10921 10919 10917 10916 10914 10914 10914 10913 10913 10912 10911 10910 10908 10907 10907 10906
10957 10959 10961 10963 10964 10965 10967 10970 10971 10973 10974 10975 10976 10976 10977 10978 10979 10980 10980 10981 10982 10982 10982 10983 10983 10983 10984 10984 10984 10983 10983 10983 10982 10982 10981 10980 10979 10977 10976 10974 10972 10970 10968 10967 10965 10963 10962 10960 10958 10956 10954 10953 10951 10949 10947 10944 10942 10940 10939 10938 10936 10934 10931 10929 10926 10924 10922 10920 10918 10917 10915 10913 10912 10910 10910 10909 10909 10909 10908 10907 10906 10905 10903 10903 10902
10954 10956 10958 10960 10961 10963 10965 10967 10968 10970 10971 10972 10972 10973 10974 10975 10976 10976 10977 10977 10978 10978 10978 10979 10979 10980 10980 10980 10980 10979 10979 10979 10978 10978 10977 10976 10975 10973 10972 10970 10968 10966 10964 10963 10961 10959 10957 10955 10953 10951 10949 10947 10946 10944 10942 10939 10936 10934 10933 10932 10930 10928 10926 10923 10921 10920 10918 10916 10914 10912 10910 10909 10908 10906 10905 10905 10905 10904 10904 10903 10902 10901 10899 10898 10897
10950 10952 10954 10957 10958 10960 10962 10963 10965 10967 10968 10968 10969 10970 10971 10972 10972 10972 10973 10974 10974 10975 10975 10975 10975 10976 10976 10976 10975 10975 10974 10974 10974 10973 10973 10972 10971 10969 10967 10966 10964 10962 10960 10958 10957 10955 10952 10950 10948 10946 10944 10942 10940 10939 10937 10934 10931 10929 10927 10926 10924 10923 10920 10918 10916 10915 10913 10911 10910 10908 10906 10904 10903 10902 10901 10901 10900 10900 10899 10899 10898 10897 10896 10894 10892
10946 10948 10951 10954 10955 10956 10958 10960 10962 10963 10964 10964 10966 10967 10968 10969 10969 10969 10969 10970 10971 10972 10972 10972 10972 10972 10972 10972 10971 10970 10970 10969 10969 10968 10968 10967 10966 10964 10962 10961 10959 10957 10955 10953 10952 10950 10948 10946 10944 10941 10938 10936 10934 10932 10930 10929 10927 10924 10921 10920 10919 10917 10915 10913 10912 10910 10908 10907 10905 10903 10902 10900 10899 10898 10897 10897 10896 10896 10895 10895 10894 10893 10892 10890 10888
10943 10945 10947 10949 10951 10953 10955 10957 10958 10959 10960 10961 10962 10964 10965 10965 10965 10966 10967 10968 10969 10969 10968 10969 10969 10968 10967 10967 10967 10965 10965 10964 10964 10963 10963 10963 10962 10960 10958 10955 10954 10952 10950 10949 10947 10945 10943 10941 10939 10936 10933 10930 10927 10926 10924 10924 10923 10920 10917 10915 10914 10912 10910 10908 10907 10906 10904 10902 10900 10899 10898 10897 10896 10895 10894 10893 10892 10892 10891 10891 10890 10889 10888 10887 10885
10939 10940 10942 10944 10947 10949 10951 10952 10954 10955 10956 10957 10958 10960 10961 10961 10962 10963 10964 10964 10965 10965 10965 10965 10964 10964 10963 10962 10962 10960 10959 10959 10959 10959 10959 10958 10957 10955 10953 10950 10948 10947 10945 10943 10941 10939 10937 10936 10934 10931 10928 10925 10921 10919 10919 10919 10919 10917 10914 10911 10909 10908 10906 10903 10901 10900 10899 10898 10896 10894 10894 10894 10893 10892 10891 10890 10889 10888 10887 10886 10886 10885 10884 10883 10882
10935 10936 10938 10940 10942 10945 10946 10948 10950 10951 10952 10953 10954 10955 10957 10957 10958 10958 10959 10960 10961 10960 10960 10960 10960 10959 10959 10958 10957 10955 10955 10954 10954 10954 10953 10953 10952 10951 10948 10945 10943 10941 10939 10937 10935 10933 10932 10930 10928 10925 10923 10920 10917 10914 10914 10914 10914 10913 10910 10907 10905 10903 10901 10898 10896 10895 10894 10893 10892 10891 10890 10890 10889 10888 10888 10887 10886 10885 10884 10882 10881 10881 10880 10879 10878
10931 10932 10934 10936 10938 10940 10942 10944 10945 10946 10947 10948 10949 10950 10952 10953 10954 10954 10955 10955 10955 10955 10955 10954 10955 10954 10954 10953 10952 10951 10950 10949 10948 10948 10947 10947 10946 10945 10944 10941 10938 10935 10932 10931 10930 10928 10926 10924 10922 10920 10919 10917 10913 10910 10910 10910 10909 10907 10906 10904 10901 10900 10897 10893 10890 10890 10890 10889 10889 10887 10886 10886 10886 10885 10885 10883 10882 10882 10881 10879 10877 10876 10875 10874 10874
10926 10928 10930 10932 10934 10935 10937 10939 10940 10941 10942 10943 10945 10946 10947 10948 10949 10949 10950 10949 10949 10950 10949 10949 10950 10949 10948 10947 10946 10945 10944 10943 10942 10941 10941 10941 10940 10939 10937 10936 10933 10930 10926 10925 10925 10923 10921 10919 10916 10915 10913 10912 10910 10907 10906 10905 10904 10903 10901 10900 10898 10896 10894 10890 10887 10887 10887 10886 10885 10884 10882 10882 10882 10881 10881 10880 10879 10878 10877 10876 10874 10873 10871 10870 10869
10921 10923 10925 10927 10929 10931 10932 10934 10935 10936 10937 10938 10939 10941 10942 10943 10944 10944 10944 10944 10944 10945 10944 10944 10944 10943 10942 10941 10940 10939 10938 10937 10936 10935 10934 10934 10934 10933 10932 10930 10928 10925 10923 10922 10921 10918 10915 10913 10911 10910 10909 10907 10906 10904 10901 10900 10900 10898 10896 10896 10896 10893 10890 10887 10886 10885 10884 10883 10882 10880 10879 10879 10878 10876 10875 10875 10874 10873 10872 10871 10870 10869 10867 10866 10865
10916 10919 10921 10923 10924 10926 10927 10929 10930 10931 10932 10932 10934 10936 10937 10937 10938 10938 10939 10939 10939 10939 10939 10938 10937 10936 10936 10935 10934 10933 10932 10931 10930 10928 10928 10928 10928 10928 10927 10926 10924 10921 10920 10919 10918 10915 10911 10908 10906 10905 10904 10902 10901 10900 10898 10897 10896 10894 10892 10892 10891 10889 10886 10885 10884 10883 10881 10880 10879 10877 10876 10875 10874 10873 10871 10870 10869 10868 10866 10866 10865 10864 10863 10861 10861
10911 10914 10916 10918 10919 10921 10922 10923 10924 10925 10926 10927 10929 10930 10931 10932 10932 10932 10933 10933 10933 10933 10932 10931 10931 10930 10929 10928 10927 10927 10926 10925 10924 10922 10922 10922 10921 10921 10921 10920 10919 10918 10917 10916 10914 10911 10908 10904 10902 10901 10899 10898 10897 10895 10894 10893 10892 10890 10889 10888 10886 10885 10883 10882 10881 10879 10877 10876 10875 10874 10873 10871 10870 10870 10868 10866 10865 10863 10861 10860 10859 10858 10857 10856 10855
10907 10909 10910 10912 10914 10915 10916 10918 10919 10920 10921 10922 10923 10924 10925 10926 10926 10926 10927 10927 10927 10927 10926 10925 10925 10924 10923 10923 10922 10921 10921 10920 10918 10916 10916 10916 10916 10915 10915 10913 10912 10913 10913 10911 10909 10907 10904 10901 10900 10898 10896 10895 10893 10891 10889 10888 10886 10885 10884 10882 10881 10880 10879 10878 10876 10875 10872 10870 10870 10869 10869 10867 10866 10865 10864 10862 10861 10859 10857 10856 10854 10853 10853 10851 10850
10902 10904 10905 10907 10908 10910 10911 10912 10913 10914 10915 10916 10917 10918 10919 10919 10920 10920 10920 10921 10921 10921 10920 10920 10919 10918 10917 10917 10917 10916 10916 10915 10913 10911 10911 10911 10911 10911 10910 10909 10908 10908 10907 10906 10904 10902 10899 10898 10896 10894 10893 10892 10890 10887 10885 10883 10881 10879 10878 10876 10876 10875 10875 10874 10872 10870 10868 10865 10864 10864 10863 10863 10861 10860 10859 10858 10857 10855 10854 10851 10849 10848 10847 10845 10843
10897 10898 10900 10901 10903 10904 10905 10906 10907 10908 10909 10910 10911 10912 10913 10914 10914 10915 10915 10916 10916 10915 10915 10915 10914 10913 10912 10911 10911 10911 10911 10910 10909 10907 10906 10906 10906 10906 10905 10903 10903 10902 10902 10900 10898 10896 10894 10893 10891 10891 10890 10889 10886 10884 10881 10879 10877 10875 10872 10871 10871 10870 10870 10869 10867 10865 10863 10861 10859 10858 10857 10857 10857 10856 10855 10853 10851 10850 10849 10847 10843 10842 10841 10839 10836
10891 10893 10894 10896 10897 10898 10899 10901 10902 10903 10904 10905 10906 10907 10908 10909 10910 10910 10910 10910 10910 10910 10910 10910 10909 10909 10908 10907 10906 10906 10906 10905 10904 10902 10901 10901 10901 10900 10898 10897 10896 10896 10895 10894 10892 10890 10889 10888 10887 10886 10886 10885 10883 10880 10877 10875 10872 10871 10868 10866 10865 10865 10865 10865 10863 10862 10860 10858 10856 10854 10853 10852 10851 10850 10850 10849 10846 10844 10842 10841 10838 10836 10834 10832 10829
10886 10888 10889 10891 10892 10893 10894 10895 10897 10898 10899 10900 10901 10903 10904 10905 10905 10905 10905 10906 10906 10905 10905 10905 10905 10904 10903 10903 10902 10901 10901 10900 10899 10898 10897 10896 10895 10894 10892 10891 10890 10890 10889 10888 10885 10884 10884 10883 10882 10882 10881 10880 10878 10876 10873 10870 10867 10865 10863 10861 10860 10860 10860 10860 10859 10859 10858 10855 10852 10851 10849 10848 10846 10844 10843 10842 10840 10838 10835 10833 10833 10831 10828 10826 10823
10881 10883 10885 10886 10888 10889 10890 10891 10892 10893 10895 10896 10897 10898 10899 10900 10900 10900 10901 10901 10901 10901 10900 10900 10900 10900 10899 10898 10898 10897 10896 10895 10895 10895 10894 10892 10890 10888 10887 10886 10885 10884 10884 10882 10879 10878 10878 10877 10876 10875 10875 10874 10872 10870 10868 10865 10862 10860 10857 10855 10855 10855 10855 10855 10855 10855 10854 10852 10850 10848 10847 10845 10843 10841 10838 10837 10836 10834 10830 10827 10827 10826 10822 10819 10816
10876 10878 10880 10881 10883 10884 10885 10886 10887 10889 10890 10891 10892 10894 10895 10895 10895 10895 10895 10896 10896 10896 10895 10896 10896 10895 10895 10894 10893 10893 10892 10891 10891 10892 10892 10889 10886 10884 10883 10881 10880 10879 10879 10877 10875 10874 10873 10871 10869 10867 10866 10866 10865 10863 10861 10859 10856 10854 10851 10849 10849 10849 10849 10850 10850 10849 10849 10848 10846 10844 10842 10841 10839 10837 10835 10833 10832 10830 10826 10822 10821 10820 10817 10814 10811
10871 10873 10875 10876 10878 10879 10880 10881 10882 10883 10885 10886 10888 10889 10889 10889 10889 10890 10890 10890 10890 10890 10890 10891 10891 10890 10890 10889 10888 10887 10886 10886 10887 10887 10887 10884 10881 10879 10878 10876 10874 10873 10872 10871 10870 10868 10867 10864 10861 10858 10857 10857 10857 10856 10854 10852 10850 10848 10846 10844 10843 10842 10842 10843 10843 10843 10843 10843 10841 10839 10836 10834 10832 10831 10830 10828 10826 10824 10821 10817 10815 10814 10812 10809 10807
10867 10869 10870 10872 10873 10874 10875 10876 10877 10878 10880 10882 10883 10883 10882 10883 10884 10885 10885 10884 10885 10885 10885 10885 10885 10885 10885 10884 10883 10882 10881 10881 10882 10882 10881 10879 10877 10875 10872 10871 10869 10868 10866 10865 10865 10863 10860 10857 10854 10851 10849 10849 10849 10847 10845 10843 10842 10841 10840 10839 10836 10835 10835 10835 10834 10835 10834 10833 10833 10832 10830 10828 10826 10825 10825 10822 10819 10816 10814 10811 10810 10808 10805 10803 10801
10862 10864 10865 10867 10867 10868 10869 10870 10871 10873 10875 10876 10876 10876 10876 10878 10879 10879 10878 10878 10879 10879 10880 10880 10880 10879 10879 10878 10878 10877 10875 10875 10875 10875 10875 10874 10872 10870 10868 10865 10864 10862 10860 10858 10858 10856 10853 10850 10847 10845 10842 10841 10841 10840 10837 10834 10833 10832 10832 10831 10830 10829 10828 10827 10828 10830 10828 10824 10821 10820 10819 10818 10818 10819 10819 10817 10814 10810 10807 10805 10805 10803 10800 10799 10797
10856 10858 10860 10861 10862 10862 10863 10864 10865 10868 10870 10870 10869 10869 10871 10872 10872 10872 10872 10872 10872 10873 10873 10874 10873 10873 10873 10873 10872 10870 10869 10868 10868 10868 10868 10867 10866 10864 10862 10859 10858 10856 10853 10851 10849 10848 10844 10841 10839 10837 10834 10832 10832 10832 10829 10827 10826 10825 10823 10822 10822 10821 10821 10821 10823 10824 10821 10815 10812 10813 10812 10811 10810 10811 10813 10812 10809 10805 10802 10800 10799 10797 10794 10794 10792
10851 10852 10854 10855 10855 10856 10858 10859 10860 10863 10864 10862 10862 10864 10865 10865 10866 10866 10866 10866 10866 10866 10867 10867 10867 10867 10867 10866 10865 10864 10862 10861 10860 10860 10860 10860 10859 10858 10856 10853 10851 10849 10846 10843 10841 10839 10836 10835 10832 10828 10825 10824 10824 10823 10821 10820 10819 10817 10815 10815 10815 10814 10814 10814 10813 10811 10808 10804 10804 10808 10810 10809 10807 10807 10807 10806 10803 10800 10796 10794 10794 10792 10789 10788 10787
10845 10846 10847 10848 10849 10850 10851 10852 10854 10857 10857 10855 10855 10857 10858 10859 10860 10860 10859 10859 10860 10860 10860 10860 10860 10860 10860 10859 10858 10857 10856 10854 10853 10853 10852 10852 10851 10849 10847 10844 10842 10840 10837 10834 10832 10830 10827 10827 10826 10822 10819 10817 10816 10814 10813 10811 10810 10809 10808 10808 10808 10808 10808 10806 10803 10801 10799 10798 10799 10802 10805 10805 10805 10803 10801 10798 10795 10793 10791 10788 10787 10786 10785 10783 10781
10839 10840 10841 10842 10842 10843 10844 10845 10847 10849 10849 10849 10849 10850 10851 10852 10853 10853 10853 10853 10853 10852 10852 10852 10852 10852 10852 10851 10851 10850 10849 10848 10847 10845 10844 10843 10842 10840 10837 10834 10832 10831 10828 10824 10823 10821 10819 10817 10817 10814 10812 10810 10809 10807 10805 10803 10801 10800 10800 10801 10802 10802 10800 10798 10794 10793 10792 10792 10794 10797 10799 10799 10799 10799 10796 10792 10788 10786 10784 10782 10781 10780 10780 10779 10777
10832 10833 10834 10835 10836 10837 10837 10838 10839 10840 10841 10842 10842 10843 10843 10844 10845 10845 10846 10845 10845 10844 10845 10845 10845 10844 10844 10843 10842 10842 10841 10840 10839 10838 10837 10835 10833 10831 10828 10825 10823 10822 10820 10817 10816 10815 10812 10810 10808 10806 10803 10802 10800 10798 10797 10795 10792 10791 10792 10793 10795 10794 10792 10789 10787 10786 10785 10785 10788 10792 10794 10794 10794 10794 10792 10788 10784 10781 10779 10776 10775 10775 10774 10773 10772
10825 10826 10827 10828 10829 10829 10829 10830 10831 10832 10833 10834 10835 10835 10835 10836 10836 10837 10837 10837 10836 10836 10836 10836 10836 10836 10835 10835 10834 10833 10832 10831 10830 10830 10829 10827 10825 10823 10820 10817 10815 10813 10811 10810 10809 10807 10805 10802 10800 10797 10795 10793 10791 10789 10788 10785 10783 10783 10784 10786 10788 10787 10784 10782 10781 10779 10778 10779 10783 10788 10791 10791 10790 10788 10787 10784 10780 10776 10773 10770 10770 10769 10768 10767 10766
10816 10817 10818 10819 10820 10821 10821 10822 10822 10824 10825 10825 10826 10826 10827 10827 10827 10828 10829 10828 10827 10827 10828 10827 10827 10827 10826 10826 10826 10825 10823 10822 10821 10821 10820 10819 10818 10815 10813 10811 10809 10807 10804 10802 10802 10800 10798 10795 10793 10790 10788 10785 10782 10780 10778 10776 10774 10774 10776 10779 10780 10780 10777 10775 10775 10774 10773 10776 10781 10785 10785 10783 10782 10781 10779 10777 10774 10770 10766 10764 10764 10763 10762 10761 10759
10809 10809 10810 10811 10812 10813 10813 10813 10814 10815 10815 10816 10817 10817 10818 10818 10819 10819 10819 10819 10818 10818 10819 10818 10818 10818 10817 10817 10817 10816 10814 10813 10812 10812 10812 10812 10810 10808 10806 10804 10802 10801 10798 10796 10794 10794 10791 10789 10786 10784 10781 10778 10775 10772 10769 10767 10766 10766 10767 10769 10772 10773 10772 10770 10769 10769 10769 10772 10775 10776 10773 10772 10772 10772 10770 10768 10766 10763 10760 10758 10758 10757 10755 10753 10751
10801 10802 10803 10803 10804 10804 10805 10805 10805 10806 10806 10807 10807 10808 10808 10809 10810 10810 10810 10809 10808 10808 10809 10809 10808 10809 10808 10808 10807 10806 10805 10803 10802 10802 10803 10803 10802 10800 10798 10796 10795 10794 10792 10790 10787 10786 10784 10781 10779 10776 10773 10770 10767 10764 10761 10759 10759 10759 10759 10761 10763 10765 10765 10765 10764 10764 10765 10765 10765 10765 10764 10763 10764 10764 10762 10760 10758 10755 10753 10752 10752 10751 10749 10746 10744
10792 10793 10793 10794 10795 10796 10796 10797 10798 10798 10798 10799 10799 10799 10799 10800 10800 10800 10800 10800 10798 10798 10798 10799 10800 10800 10799 10799 10798 10797 10796 10794 10792 10791 10792 10793 10793 10792 10790 10788 10787 10786 10785 10784 10781 10778 10775 10773 10770 10768 10765 10761 10758 10756 10753 10752 10752 10752 10753 10754 10755 10756 10757 10757 10757 10757 10758 10757 10755 10756 10756 10757 10757 10757 10757 10755 10751 10749 10747 10747 10746 10744 10742 10740 10737
10783 10783 10784 10785 10787 10788 10789 10790 10790 10790 10791 10791 10791 10790 10790 10791 10791 10790 10790 10789 10788 10788 10788 10790 10790 10790 10789 10789 10789 10787 10787 10785 10783 10781 10782 10783 10784 10783 10781 10779 10778 10777 10776 10776 10773 10770 10767 10764 10760 10758 10756 10753 10750 10747 10745 10744 10744 10745 10747 10749 10749 10749 10749 10750 10750 10749 10750 10749 10748 10749 10749 10750 10751 10753 10753 10750 10745 10742 10740 10740 10738 10736 10734 10731 10729
10773 10775 10776 10778 10779 10780 10781 10782 10782 10783 10784 10783 10782 10781 10781 10781 10780 10779 10778 10778 10778 10778 10779 10780 10781 10780 10778 10777 10778 10778 10777 10776 10773 10771 10771 10773 10774 10773 10771 10770 10769 10768 10767 10766 10764 10762 10759 10755 10751 10749 10748 10745 10742 10740 10738 10737 10736 10737 10739 10742 10743 10743 10743 10744 10744 10744 10743 10743 10743 10743 10743 10745 10747 10748 10746 10741 10736 10734 10733 10732 10730 10729 10726 10723 10720
10765 10767 10769 10771 10773 10774 10774 10774 10774 10774 10774 10773 10772 10772 10772 10771 10769 10768 10767 10767 10767 10767 10768 10769 10771 10770 10767 10765 10766 10767 10767 10766 10764 10761 10761 10762 10763 10762 10761 10760 10759 10758 10757 10757 10755 10752 10750 10747 10743 10741 10739 10737 10735 10733 10732 10730 10729 10730 10732 10734 10735 10735 10736 10737 10737 10738 10737 10737 10737 10737 10737 10738 10739 10738 10736 10731 10727 10725 10724 10723 10722 10721 10718 10714 10712
10758 10760 10762 10763 10765 10765 10765 10763 10763 10764 10764 10763 10763 10763 10762 10760 10757 10756 10756 10756 10756 10757 10758 10759 10760 10759 10757 10755 10755 10755 10755 10756 10755 10753 10751 10751 10751 10750 10750 10749 10748 10748 10747 10747 10746 10743 10741 10739 10736 10733 10731 10729 10727 10726 10725 10724 10722 10723 10726 10727 10727 10728 10728 10728 10729 10729 10728 10728 10728 10728 10728 10728 10728 10726 10724 10720 10717 10715 10714 10713 10713 10713 10710 10706 10704
10749 10751 10752 10753 10754 10755 10754 10754 10753 10754 10754 10754 10754 10752 10749 10748 10747 10746 10747 10746 10745 10746 10747 10748 10748 10747 10746 10745 10745 10744 10744 10745 10745 10744 10743 10742 10741 10740 10740 10739 10738 10738 10738 10737 10736 10735 10733 10731 10728 10726 10724 10722 10719 10718 10718 10718 10716 10716 10719 10722 10723 10722 10722 10721 10721 10720 10719 10717 10716 10716 10716 10716 10715 10713 10711 10708 10707 10705 10704 10703 10703 10703 10701 10699 10696
10739 10741 10742 10744 10744 10745 10744 10743 10743 10743 10743 10743 10742 10741 10738 10737 10738 10738 10737 10735 10734 10734 10735 10736 10736 10736 10735 10735 10734 10734 10734 10734 10734 10734 10733 10732 10731 10730 10730 10730 10729 10728 10727 10727 10727 10726 10724 10723 10721 10719 10717 10715 10712 10710 10710 10711 10710 10709 10711 10715 10717 10717 10716 10714 10713 10712 10711 10709 10707 10706 10706 10705 10704 10701 10699 10697 10696 10695 10693 10693 10693 10694 10693 10691 10689
10730 10732 10733 10733 10732 10732 10731 10731 10732 10733 10732 10732 10732 10731 10729 10727 10728 10727 10726 10725 10724 10724 10724 10725 10725 10726 10725 10723 10723 10723 10723 10723 10723 10723 10722 10722 10720 10719 10719 10720 10719 10717 10716 10716 10716 10716 10715 10714 10714 10712 10710 10708 10706 10704 10703 10702 10702 10702 10703 10705 10707 10708 10707 10706 10704 10703 10703 10702 10700 10698 10697 10695 10694 10692 10691 10689 10687 10686 10684 10683 10684 10685 10684 10683 10680
10718 10720 10720 10719 10719 10719 10720 10721 10722 10723 10722 10721 10721 10720 10718 10716 10716 10716 10715 10715 10714 10713 10713 10714 10714 10714 10713 10712 10712 10712 10712 10711 10711 10711 10711 10711 10710 10708 10708 10708 10708 10706 10705 10704 10704 10704 10704 10704 10704 10704 10703 10701 10700 10699 10697 10695 10694 10694 10695 10695 10696 10696 10696 10695 10694 10693 10693 10692 10690 10689 10687 10685 10684 10683 10682 10680 10678 10677 10675 10675 10675 10675 10674 10673 10671
10705 10706 10707 10707 10708 10709 10710 10710 10711 10711 10711 10710 10709 10707 10706 10705 10704 10704 10704 10704 10703 10702 10702 10702 10702 10702 10701 10700 10700 10700 10700 10699 10698 10698 10698 10698 10697 10696 10696 10695 10695 10695 10694 10693 10692 10692 10692 10693 10693 10694 10693 10692 10691 10690 10689 10687 10686 10685 10685 10685 10686 10686 10685 10684 10683 10682 10681 10679 10679 10678 10676 10674 10672 10671 10670 10670 10669 10668 10667 10666 10666 10666 10665 10664 10662
10693 10694 10695 10696 10697 10698 10698 10698 10699 10699 10699 10698 10697 10695 10694 10693 10692 10692 10692 10692 10692 10691 10690 10689 10688 10688 10688 10688 10688 10689 10689 10688 10686 10685 10685 10685 10684 10684 10684 10684 10684 10684 10684 10683 10682 10680 10680 10680 10681 10682 10682 10681 10680 10679 10679 10677 10676 10675 10675 10675 10676 10676 10675 10673 10672 10671 10669 10667 10666 10666 10664 10662 10660 10659 10659 10659 10659 10658 10657 10656 10656 10656 10656 10655 10653
10682 10683 10683 10684 10685 10686 10687 10688 10688 10689 10689 10687 10685 10683 10682 10682 10682 10681 10681 10681 10681 10680 10679 10678 10677 10677 10676 10676 10676 10677 10678 10677 10675 10674 10673 10673 10673 10673 10673 10674 10674 10674 10673 10672 10671 10671 10670 10669 10669 10670 10670 10670 10669 10668 10668 10666 10664 10665 10665 10665 10665 10666 10664 10663 10661 10660 10657 10655 10654 10654 10653 10651 10650 10649 10649 10649 10648 10647 10647 10647 10646 10646 10646 10645 10644
10670 10671 10672 10673 10673 10674 10675 10676 10677 10678 10678 10676 10673 10671 10670 10670 10671 10671 10671 10671 10671 10670 10669 10668 10667 10666 10666 10665 10665 10666 10666 10666 10664 10663 10663 10662 10661 10662 10662 10662 10663 10663 10662 10661 10660 10659 10659 10659 10659 10658 10658 10657 10657 10657 10656 10655 10655 10655 10655 10654 10654 10654 10653 10652 10650 10649 10647 10645 10643 10643 10642 10641 10640 10639 10639 10638 10638 10637 10637 10637 10637 10636 10636 10635 10634